Hourly Data Report for May 02, 2015

All times are specified in Local Standard Time (LST). Add 1 hour to adjust for Daylight Saving Time where and when it is observed.

Metadata including Station Name, Province, Latitude, Longitude, Elevation, Climate ID, WMO ID, TC ID
GRAND ETANG
NOVA SCOTIA
Latitude: 46°33'00.000" N Longitude: 61°03'00.000" W Elevation: 12.80 m
Climate ID: 8201969 WMO ID: TC ID: WZQ
Hourly Data Report for May 2, 2015
Temp Definition
°C

Dew Point Temp Definition
°C

Rel Hum Definition
%

Wind Dir Definition
10's deg
Wind Spd Definition
km/h

Visibility Definition
km

Stn Press Definition
kPa

Hmdx Definition

Wind Chill Definition

Weather Definition

00:00 0.6 LegendMM 93 21 9 101.46 LegendNANA
01:00 1.1 LegendMM 90 21 3 101.45 LegendNANA
02:00 0.8 LegendMM 92 24 9 101.45 LegendNANA
03:00 1.5 LegendMM 89 13 8 101.45 LegendNANA
04:00 1.6 LegendMM 90 20 1 101.44 LegendNANA
05:00 0.8 LegendMM 95 20 3 101.49 LegendNANA
06:00 1.5 LegendMM 93 25 7 101.53 LegendNANA
07:00 1.7 LegendMM 94 22 6 101.57 LegendNANA
08:00 2.9 LegendMM 88 31 2 101.57 LegendNANA
09:00 3.0 LegendMM 86 32 2 101.58 LegendNANA
10:00 4.7 LegendMM 79 31 4 101.54 LegendNANA
11:00 6.2 LegendMM 77 28 5 101.53 LegendNANA
12:00 5.7 LegendMM 80 35 8 101.51 LegendNANA
13:00 5.5 LegendMM 78 32 10 101.50 LegendNANA
14:00 7.3 LegendMM 75 35 7 101.43 LegendNANA
15:00 5.9 LegendMM 78 32 13 101.41 LegendNANA
16:00 7.2 LegendMM 74 26 5 101.41 LegendNANA
17:00 5.7 LegendMM 83 30 6 101.42 LegendNANA
18:00 4.3 LegendMM 88 32 6 101.42 LegendNANA
19:00 3.9 LegendMM 87 3 8 101.43 LegendNANA
20:00 5.3 LegendMM 72 11 8 101.43 LegendNANA
21:00 6.0 LegendMM 66 13 21 101.45 LegendNANA
22:00 6.0 LegendMM 64 13 25 101.48 LegendNANA
23:00 5.7 LegendMM 65 12 22 101.50 LegendNANA

Notes on Data Quality.

Legend
  • E = Estimated
  • M = Missing
  • NA = Not Available
  • ‡ = Partner data that is not subject to review by the National Climate Archives